Regional Weather Roundup
Issued by NWS Nashville, TN

Home | Current Version | Previous Version | Text Only | Print | Product List | Glossary On
Versions: 1 2 3 4 5 6 7 8 9 10 11 12 13 14 15 16 17 18 19 20 21 22 23 24 25 26 27 28 29 30 31 32 33 34 35 36 37 38 39 40 41 42 43 44 45 46 47 48 49 50
134
ASUS44 KOHX 280810
RWROHX
MIDDLE TENNESSEE HOURLY WEATHER ROUNDUP
NATIONAL WEATHER SERVICE NASHVILLE TN
300 AM CDT TUE MAR 28 2017

NOTE: "FAIR" INDICATES FEW OR NO CLOUDS BELOW 12,000 FEET WITH
NO SIGNIFICANT WEATHER AND/OR OBSTRUCTIONS TO VISIBILITY.

* THESE REPORTS ARE NOT UNDER NWS QUALITY CONTROL AND MAY NOT
  REPORT WEATHER SUCH AS PRECIPITATION AND FOG.


TNZ005>011-023>034-057-059-062>066-078-080-280900
...NORTHERN MIDDLE TENNESSEE...

CITY           SKY/WX    TMP DP  RH WIND       PRES   REMARKS
CLARKSVILLE    MOCLDY    53  52  96 W6        29.90R
CROSSVILLE     CLEAR     54  52  93 S6        29.90F
GALLATIN       CLOUDY    59  57  94 CALM      29.92S
NASHVILLE      CLOUDY    58  57  97 W6        29.90S
PORTLAND       CLOUDY    57  57 100 W5        29.89S
SMYRNA         RAIN      55  55 100 S3          N/A
SPARTA         MOCLDY    54  52  94 CALM      29.89R
WEST NASHVILLE CLOUDY    55  55 100 SW7         N/A
$$
TNZ056-058-060-061-075>077-079-093>097-280900
...SOUTHERN MIDDLE TENNESSEE...

CITY           SKY/WX    TMP DP  RH WIND       PRES   REMARKS
COLUMBIA       CLOUDY   N/A N/A N/A CALM      29.89S
FAYETTEVILLE   CLOUDY    57  57 100 S6        29.91S FOG
MCMINNVILLE    PTCLDY    57  57 100 CALM      29.89F
SHELBYVILLE    CLOUDY    57  57 100 CALM      29.91S
TULLAHOMA      CLEAR     54  54 100 S5          N/A
WINCHESTER     CLEAR     55  55 100 SE5       29.91S
$$


...KEY TO REMARKS...
VSB - VISIBILITY IN MILES
WCI - WIND CHILL INDEX
HX  - HEAT INDEX





USA.gov is the U.S. government's official web portal to all federal, state and local government web resources and services.